| time (UTC) | temp F | wind direction | speed MPH | gust MPH | rain 1hr in | rain 24hr in | rain mn in | humidity % | barometer mb |
| 20260506071034 | 53 | 207 | 0.0 | 0.0 | 0.00 | 0.07 | 0.07 | 93 | 1005.4 |
| 20260506070531 | 53 | 190 | 0.0 | 0.0 | 0.07 | 0.07 | 0.07 | 93 | 1004.9 |
| 20260506062508 | 55 | 197 | 0.0 | 0.0 | 0.00 | 0.00 | 0.00 | 93 | 1004.3 |
| 20260506062005 | 55 | 204 | 0.0 | 0.0 | 0.00 | 0.00 | 0.00 | 93 | 1003.9 |
| 20260506061501 | 54 | 199 | 0.0 | 0.0 | 0.00 | 0.00 | 0.00 | 93 | 1003.9 |
| 20260506060959 | 54 | 205 | 0.0 | 0.0 | 0.00 | 0.00 | 0.00 | 93 | 1003.9 |
| 20260506060457 | 54 | 204 | 0.0 | 0.0 | 0.00 | 0.00 | 0.00 | 93 | 1004.3 |
| 20260506050926 | 54 | 189 | 0.0 | 0.0 | 0.00 | 0.00 | 0.00 | 93 | 1003.9 |
| 20260506050423 | 54 | 202 | 0.0 | 0.0 | 0.00 | 0.00 | 0.00 | 93 | 1003.6 |
| 20260506044914 | 54 | 189 | 0.0 | 0.0 | 0.00 | 0.00 | 0.00 | 93 | 1003.6 |
| 20260506044412 | 54 | 208 | 0.0 | 0.0 | 0.00 | 0.00 | 0.00 | 93 | 1003.6 |
| 20260506043909 | 54 | 236 | 0.0 | 0.0 | 0.00 | 0.00 | 0.00 | 93 | 1003.2 |
| 20260506043406 | 54 | 176 | 0.0 | 0.0 | 0.00 | 0.00 | 0.00 | 93 | 1003.2 |
| 20260506042904 | 54 | 169 | 0.0 | 0.0 | 0.00 | 0.00 | 0.00 | 93 | 1002.9 |
| 20260506042403 | 54 | 172 | 0.0 | 0.0 | 0.00 | 0.00 | 0.00 | 93 | 1002.9 |
| 20260506041901 | 53 | 158 | 0.0 | 0.0 | 0.00 | 0.00 | 0.00 | 93 | 1002.9 |
| 20260506041358 | 53 | 172 | 0.0 | 0.0 | 0.00 | 0.00 | 0.00 | 93 | 1003.2 |
| 20260506040855 | 54 | 204 | 0.0 | 0.0 | 0.00 | 0.00 | 0.00 | 93 | 1002.9 |
| 20260506040352 | 54 | 194 | 0.0 | 0.0 | 0.00 | 0.00 | 0.00 | 93 | 1002.6 |
| 20260506035848 | 53 | 200 | 0.0 | 0.0 | 0.00 | 0.28 | 0.28 | 92 | 1002.6 |
| 20260506035346 | 53 | 192 | 0.0 | 0.0 | 0.00 | 0.28 | 0.28 | 93 | 1002.6 |
| 20260506034843 | 53 | 187 | 0.0 | 0.0 | 0.00 | 0.28 | 0.28 | 92 | 1002.6 |
| 20260506034340 | 53 | 187 | 0.0 | 0.0 | 0.00 | 0.28 | 0.28 | 92 | 1002.6 |
| 20260506033837 | 53 | 189 | 0.0 | 0.0 | 0.00 | 0.28 | 0.28 | 92 | 1002.6 |
| 20260506033334 | 54 | 202 | 0.0 | 0.0 | 0.00 | 0.28 | 0.28 | 92 | 1002.2 |
| 20260506032831 | 54 | 202 | 0.0 | 0.0 | 0.00 | 0.28 | 0.28 | 92 | 1002.6 |
| 20260506032327 | 54 | 190 | 0.0 | 0.0 | 0.00 | 0.28 | 0.28 | 92 | 1002.6 |
| 20260506031825 | 54 | 204 | 0.0 | 0.0 | 0.00 | 0.28 | 0.28 | 92 | 1002.6 |
| 20260506031322 | 55 | 204 | 0.0 | 0.0 | 0.00 | 0.28 | 0.28 | 92 | 1002.6 |
| 20260506030819 | 55 | 188 | 0.0 | 0.0 | 0.00 | 0.28 | 0.28 | 92 | 1002.6 |
| 20260506030317 | 55 | 181 | 0.0 | 0.0 | 0.00 | 0.28 | 0.28 | 92 | 1002.6 |
| 20260506025814 | 55 | 204 | 0.0 | 0.0 | 0.00 | 0.28 | 0.28 | 92 | 1002.6 |
| 20260506025310 | 55 | 218 | 0.0 | 0.0 | 0.00 | 0.28 | 0.28 | 92 | 1002.6 |
| 20260506024807 | 55 | 229 | 0.0 | 0.0 | 0.00 | 0.28 | 0.28 | 92 | 1002.6 |
| 20260506024304 | 55 | 176 | 0.0 | 0.0 | 0.00 | 0.28 | 0.28 | 92 | 1002.6 |
| 20260506023800 | 55 | 202 | 0.0 | 0.0 | 0.00 | 0.28 | 0.28 | 92 | 1002.6 |
| 20260506023258 | 55 | 192 | 0.0 | 0.0 | 0.00 | 0.28 | 0.28 | 92 | 1002.2 |
| 20260506022754 | 55 | 228 | 0.0 | 0.0 | 0.00 | 0.28 | 0.28 | 92 | 1002.6 |
| 20260506022252 | 55 | 171 | 0.0 | 0.0 | 0.00 | 0.28 | 0.28 | 92 | 1002.2 |
| 20260506021750 | 55 | 240 | 0.0 | 2.0 | 0.00 | 0.28 | 0.28 | 92 | 1002.2 |
| 20260506021246 | 55 | 298 | 0.0 | 0.0 | 0.00 | 0.28 | 0.28 | 92 | 1002.6 |
| 20260506020743 | 55 | 194 | 0.0 | 2.0 | 0.00 | 0.28 | 0.28 | 92 | 1002.6 |
| 20260506020241 | 56 | 162 | 0.0 | 0.0 | 0.00 | 0.28 | 0.28 | 92 | 1002.2 |
| 20260506015738 | 56 | 164 | 3.0 | 5.0 | 0.00 | 0.28 | 0.28 | 92 | 1002.2 |
| 20260506015236 | 56 | 178 | 0.0 | 0.0 | 0.00 | 0.28 | 0.28 | 92 | 1002.2 |
| 20260506014732 | 56 | 182 | 0.0 | 0.0 | 0.00 | 0.28 | 0.28 | 92 | 1002.2 |
| 20260506014229 | 56 | 179 | 0.0 | 0.0 | 0.00 | 0.28 | 0.28 | 92 | 1002.2 |
| 20260506013726 | 56 | 182 | 0.0 | 0.0 | 0.00 | 0.28 | 0.28 | 92 | 1002.2 |
| 20260506013223 | 56 | 147 | 0.0 | 2.0 | 0.00 | 0.28 | 0.28 | 92 | 1002.2 |
| 20260506012719 | 56 | 199 | 0.0 | 2.0 | 0.00 | 0.28 | 0.28 | 92 | 1002.2 |
| 20260506012216 | 56 | 195 | 0.0 | 0.0 | 0.00 | 0.28 | 0.28 | 92 | 1001.9 |
| 20260506011713 | 56 | 136 | 0.0 | 0.0 | 0.00 | 0.28 | 0.28 | 92 | 1001.9 |
| 20260506011209 | 56 | 212 | 0.0 | 5.0 | 0.00 | 0.28 | 0.28 | 92 | 1001.9 |
| 20260506010708 | 56 | 199 | 0.0 | 8.0 | 0.00 | 0.28 | 0.28 | 91 | 1001.6 |
| 20260506010205 | 56 | 186 | 0.0 | 5.0 | 0.00 | 0.28 | 0.28 | 91 | 1001.9 |
| 20260506005657 | 56 | 266 | 0.0 | 8.0 | 0.00 | 0.28 | 0.28 | 91 | 1001.6 |
| 20260506005153 | 56 | 183 | 0.0 | 0.0 | 0.00 | 0.28 | 0.28 | 91 | 1001.6 |
| 20260506004649 | 56 | 182 | 0.0 | 0.0 | 0.00 | 0.28 | 0.28 | 91 | 1001.6 |
| 20260506004147 | 56 | 154 | 0.0 | 0.0 | 0.00 | 0.28 | 0.28 | 91 | 1001.6 |
| 20260506003643 | 56 | 250 | 0.0 | 0.0 | 0.00 | 0.28 | 0.28 | 91 | 1001.6 |
| 20260506003139 | 56 | 177 | 0.0 | 2.0 | 0.00 | 0.28 | 0.28 | 91 | 1001.2 |
| 20260506002635 | 57 | 187 | 2.0 | 5.0 | 0.00 | 0.28 | 0.28 | 91 | 1000.9 |
| 20260506002132 | 56 | 48 | 0.0 | 0.0 | 0.00 | 0.28 | 0.28 | 91 | 1000.4 |
| 20260506001628 | 56 | 156 | 0.0 | 8.0 | 0.00 | 0.28 | 0.28 | 91 | 1000.9 |
| 20260506001125 | 56 | 270 | 0.0 | 0.0 | 0.00 | 0.28 | 0.28 | 91 | 1000.9 |
| 20260506000622 | 56 | 148 | 0.0 | 2.0 | 0.00 | 0.28 | 0.28 | 91 | 1000.9 |
| 20260506000119 | 56 | 160 | 0.0 | 0.0 | 0.00 | 0.28 | 0.28 | 91 | 1000.9 |
| 20260505235618 | 56 | 163 | 0.0 | 0.0 | 0.00 | 0.28 | 0.28 | 91 | 1000.4 |
| 20260505235114 | 56 | 180 | 0.0 | 8.0 | 0.00 | 0.28 | 0.28 | 91 | 1000.4 |
| 20260505234611 | 56 | 183 | 0.0 | 5.0 | 0.00 | 0.28 | 0.28 | 91 | 1000.4 |
| 20260505234108 | 56 | 194 | 0.0 | 5.0 | 0.00 | 0.28 | 0.28 | 91 | 1000.4 |
| 20260505233606 | 56 | 189 | 0.0 | 8.0 | 0.00 | 0.28 | 0.28 | 91 | 1000.4 |
| 20260505233102 | 56 | 266 | 2.0 | 5.0 | 0.00 | 0.28 | 0.28 | 90 | 1000.1 |
| 20260505232600 | 56 | 138 | 0.0 | 10.0 | 0.00 | 0.28 | 0.28 | 90 | 1000.1 |
| 20260505232058 | 57 | 197 | 0.0 | 8.0 | 0.00 | 0.28 | 0.28 | 90 | 1000.1 |
| 20260505231554 | 57 | 231 | 0.0 | 0.0 | 0.00 | 0.28 | 0.28 | 90 | 1000.1 |
| 20260505231053 | 57 | 179 | 0.0 | 5.0 | 0.00 | 0.28 | 0.28 | 90 | 999.8 |
| 20260505230550 | 57 | 166 | 0.0 | 8.0 | 0.00 | 0.28 | 0.28 | 89 | 999.8 |
| 20260505230046 | 57 | 173 | 2.0 | 2.0 | 0.00 | 0.28 | 0.28 | 89 | 999.8 |
| 20260505225543 | 57 | 151 | 3.0 | 5.0 | 0.00 | 0.28 | 0.28 | 89 | 999.8 |
| 20260505225039 | 57 | 208 | 3.0 | 5.0 | 0.00 | 0.28 | 0.28 | 89 | 999.8 |
| 20260505224536 | 57 | 146 | 0.0 | 2.0 | 0.00 | 0.28 | 0.28 | 89 | 999.4 |
| 20260505224034 | 57 | 255 | 0.0 | 0.0 | 0.00 | 0.28 | 0.28 | 89 | 999.4 |
| 20260505223531 | 57 | 214 | 2.0 | 8.0 | 0.00 | 0.28 | 0.28 | 88 | 999.8 |
| 20260505223027 | 57 | 191 | 3.0 | 5.0 | 0.00 | 0.28 | 0.28 | 88 | 999.8 |
| 20260505222523 | 57 | 179 | 0.0 | 0.0 | 0.00 | 0.28 | 0.28 | 87 | 999.8 |
| 20260505222019 | 57 | 233 | 0.0 | 0.0 | 0.00 | 0.28 | 0.28 | 87 | 999.8 |
| 20260505221517 | 57 | 207 | 2.0 | 5.0 | 0.00 | 0.28 | 0.28 | 86 | 999.8 |
| 20260505221013 | 57 | 181 | 0.0 | 5.0 | 0.07 | 0.28 | 0.28 | 86 | 999.8 |
| 20260505220510 | 57 | 25 | 0.0 | 5.0 | 0.07 | 0.28 | 0.28 | 85 | 999.8 |
| 20260505220008 | 57 | 241 | 0.0 | 5.0 | 0.14 | 0.27 | 0.27 | 85 | 999.8 |
| 20260505215506 | 57 | 249 | 2.0 | 10.0 | 0.14 | 0.26 | 0.26 | 85 | 1000.1 |
| 20260505215004 | 57 | 274 | 4.0 | 5.0 | 0.14 | 0.25 | 0.25 | 84 | 1000.1 |
| 20260505214502 | 57 | 272 | 0.0 | 0.0 | 0.07 | 0.24 | 0.24 | 84 | 1000.1 |
| 20260505213958 | 57 | 197 | 0.0 | 0.0 | 0.14 | 0.24 | 0.24 | 83 | 1000.1 |
| 20260505213456 | 57 | 233 | 0.0 | 8.0 | 0.21 | 0.22 | 0.22 | 81 | 1000.4 |
| 20260505212952 | 57 | 152 | 0.0 | 0.0 | 0.28 | 0.21 | 0.21 | 80 | 1000.1 |
| 20260505212449 | 58 | 175 | 0.0 | 0.0 | 0.35 | 0.19 | 0.19 | 78 | 1000.1 |
| 20260505211945 | 58 | 287 | 0.0 | 0.0 | 0.85 | 0.17 | 0.17 | 76 | 1000.1 |
| 20260505211443 | 61 | 123 | 0.0 | 8.0 | 0.57 | 0.09 | 0.09 | 71 | 1000.1 |
| 20260505210939 | 63 | 193 | 3.0 | 8.0 | 0.07 | 0.02 | 0.02 | 64 | 999.8 |
| 20260505210436 | 69 | 269 | 0.0 | 0.0 | 0.00 | 0.00 | 0.00 | 49 | 997.4 |
| 20260505205933 | 71 | 215 | 0.0 | 2.0 | 0.00 | 0.00 | 0.00 | 43 | 997.0 |
| 20260505205432 | 72 | 270 | 0.0 | 0.0 | 0.00 | 0.00 | 0.00 | 40 | 996.7 |
| 20260505204928 | 72 | 263 | 0.0 | 0.0 | 0.00 | 0.00 | 0.00 | 40 | 996.7 |
| 20260505204426 | 72 | 155 | 0.0 | 0.0 | 0.00 | 0.00 | 0.00 | 40 | 996.7 |
| 20260505203923 | 73 | 282 | 0.0 | 0.0 | 0.00 | 0.00 | 0.00 | 40 | 997.0 |
| 20260505203419 | 73 | 162 | 0.0 | 0.0 | 0.00 | 0.00 | 0.00 | 40 | 996.7 |
| 20260505202916 | 73 | 199 | 0.0 | 0.0 | 0.00 | 0.00 | 0.00 | 39 | 996.7 |
| 20260505202412 | 74 | 145 | 2.0 | 8.0 | 0.00 | 0.00 | 0.00 | 39 | 996.7 |
| 20260505201909 | 75 | 171 | 3.0 | 10.0 | 0.00 | 0.00 | 0.00 | 38 | 996.7 |
| 20260505201406 | 74 | 198 | 0.0 | 2.0 | 0.00 | 0.00 | 0.00 | 38 | 996.7 |
| 20260505200904 | 74 | 194 | 0.0 | 10.0 | 0.00 | 0.00 | 0.00 | 38 | 996.7 |
| 20260505200401 | 74 | 206 | 9.0 | 13.0 | 0.00 | 0.00 | 0.00 | 38 | 997.0 |
| 20260505195856 | 74 | 198 | 0.0 | 10.0 | 0.00 | 0.00 | 0.00 | 38 | 997.0 |
| 20260505195354 | 74 | 158 | 0.0 | 8.0 | 0.00 | 0.00 | 0.00 | 38 | 997.0 |
| 20260505194851 | 73 | 219 | 2.0 | 8.0 | 0.00 | 0.00 | 0.00 | 38 | 997.0 |
| 20260505194349 | 73 | 196 | 0.0 | 2.0 | 0.00 | 0.00 | 0.00 | 38 | 997.7 |
| 20260505193848 | 73 | 250 | 6.0 | 8.0 | 0.00 | 0.00 | 0.00 | 38 | 997.7 |
| 20260505193347 | 74 | 37 | 0.0 | 10.0 | 0.00 | 0.00 | 0.00 | 38 | 997.7 |
| 20260505192844 | 75 | 109 | 8.0 | 13.0 | 0.00 | 0.00 | 0.00 | 37 | 997.7 |
| 20260505192342 | 74 | 195 | 0.0 | 10.0 | 0.00 | 0.00 | 0.00 | 38 | 997.7 |
| 20260505191839 | 74 | 51 | 0.0 | 5.0 | 0.00 | 0.00 | 0.00 | 39 | 998.1 |
| 20260505191338 | 75 | 202 | 0.0 | 13.0 | 0.00 | 0.00 | 0.00 | 37 | 997.7 |
| 20260505190834 | 75 | 279 | 3.0 | 15.0 | 0.00 | 0.00 | 0.00 | 36 | 998.1 |
| 20260505190330 | 73 | 135 | 0.0 | 8.0 | 0.00 | 0.00 | 0.00 | 40 | 998.1 |
| 20260505185826 | 72 | 160 | 0.0 | 10.0 | 0.00 | 0.00 | 0.00 | 39 | 998.1 |
| 20260505185322 | 72 | 229 | 0.0 | 8.0 | 0.00 | 0.00 | 0.00 | 40 | 998.4 |
| 20260505184818 | 72 | 282 | 0.0 | 8.0 | 0.00 | 0.00 | 0.00 | 39 | 998.4 |
| 20260505184316 | 73 | 167 | 0.0 | 2.0 | 0.00 | 0.00 | 0.00 | 39 | 998.7 |
| 20260505183813 | 72 | 150 | 0.0 | 0.0 | 0.00 | 0.00 | 0.00 | 40 | 998.7 |
| 20260505183309 | 72 | 213 | 0.0 | 15.0 | 0.00 | 0.00 | 0.00 | 39 | 999.1 |
| 20260505182806 | 72 | 235 | 0.0 | 2.0 | 0.00 | 0.00 | 0.00 | 38 | 999.1 |
| 20260505182305 | 71 | 271 | 0.0 | 2.0 | 0.00 | 0.00 | 0.00 | 40 | 999.1 |
| 20260505181800 | 71 | 148 | 0.0 | 0.0 | 0.00 | 0.00 | 0.00 | 40 | 999.1 |
| 20260505181257 | 71 | 213 | 6.0 | 8.0 | 0.00 | 0.00 | 0.00 | 39 | 999.4 |
| 20260505180753 | 71 | 213 | 6.0 | 8.0 | 0.00 | 0.00 | 0.00 | 39 | 999.4 |
| 20260505180250 | 69 | 185 | 0.0 | 0.0 | 0.00 | 0.00 | 0.00 | 42 | 999.8 |
| 20260505175746 | 69 | 232 | 0.0 | 8.0 | 0.00 | 0.00 | 0.00 | 41 | 999.8 |
| 20260505175243 | 68 | 150 | 3.0 | 5.0 | 0.00 | 0.00 | 0.00 | 43 | 999.8 |
| 20260505174739 | 67 | 215 | 0.0 | 0.0 | 0.00 | 0.00 | 0.00 | 43 | 1000.1 |
| 20260505174237 | 67 | 249 | 0.0 | 0.0 | 0.00 | 0.00 | 0.00 | 44 | 1000.1 |
| 20260505173732 | 67 | 233 | 0.0 | 0.0 | 0.00 | 0.00 | 0.00 | 44 | 1000.1 |
| 20260505173229 | 68 | 205 | 0.0 | 5.0 | 0.00 | 0.00 | 0.00 | 43 | 1000.1 |
| 20260505172726 | 68 | 247 | 0.0 | 2.0 | 0.00 | 0.00 | 0.00 | 42 | 1000.1 |
| 20260505172223 | 69 | 255 | 0.0 | 0.0 | 0.00 | 0.00 | 0.00 | 42 | 1000.1 |
| 20260505171723 | 69 | 219 | 3.0 | 10.0 | 0.00 | 0.00 | 0.00 | 41 | 1000.1 |
| 20260505171221 | 69 | 255 | 0.0 | 10.0 | 0.00 | 0.00 | 0.00 | 41 | 999.8 |
| 20260505170717 | 69 | 225 | 0.0 | 15.0 | 0.00 | 0.00 | 0.00 | 41 | 999.8 |
| 20260505170214 | 69 | 247 | 0.0 | 15.0 | 0.00 | 0.00 | 0.00 | 40 | 1000.1 |
| 20260505165709 | 69 | 200 | 0.0 | 10.0 | 0.00 | 0.00 | 0.00 | 40 | 999.8 |
| 20260505165206 | 69 | 324 | 1.0 | 2.0 | 0.00 | 0.00 | 0.00 | 40 | 999.8 |
| 20260505164701 | 70 | 262 | 0.0 | 15.0 | 0.00 | 0.00 | 0.00 | 39 | 999.8 |
| 20260505164159 | 70 | 298 | 0.0 | 15.0 | 0.00 | 0.00 | 0.00 | 39 | 999.8 |
| 20260505163657 | 71 | 238 | 0.0 | 0.0 | 0.00 | 0.00 | 0.00 | 38 | 999.8 |
| 20260505163155 | 72 | 55 | 0.0 | 13.0 | 0.00 | 0.00 | 0.00 | 38 | 999.8 |
| 20260505162652 | 73 | 37 | 0.0 | 8.0 | 0.00 | 0.00 | 0.00 | 37 | 999.8 |
| 20260505162149 | 73 | 165 | 0.0 | 15.0 | 0.00 | 0.00 | 0.00 | 36 | 999.8 |
| 20260505161646 | 73 | 311 | 0.0 | 10.0 | 0.00 | 0.00 | 0.00 | 37 | 1000.1 |
| 20260505161143 | 75 | 299 | 0.0 | 8.0 | 0.00 | 0.00 | 0.00 | 36 | 1000.1 |
| 20260505160641 | 74 | 117 | 0.0 | 0.0 | 0.00 | 0.00 | 0.00 | 36 | 1000.1 |
| 20260505160138 | 74 | 249 | 0.0 | 0.0 | 0.00 | 0.00 | 0.00 | 37 | 1000.1 |
| 20260505153118 | 71 | 226 | 0.0 | 13.0 | 0.00 | 0.00 | 0.00 | 39 | 1000.4 |
| 20260505152614 | 71 | 253 | 0.0 | 2.0 | 0.00 | 0.00 | 0.00 | 40 | 1000.9 |
| 20260505152110 | 70 | 149 | 0.0 | 0.0 | 0.00 | 0.00 | 0.00 | 41 | 1000.9 |
| 20260505151605 | 69 | 132 | 0.0 | 2.0 | 0.00 | 0.00 | 0.00 | 41 | 1001.2 |
| 20260505151103 | 69 | 167 | 0.0 | 0.0 | 0.00 | 0.00 | 0.00 | 41 | 1001.2 |
| 20260505150559 | 70 | 209 | 0.0 | 0.0 | 0.00 | 0.00 | 0.00 | 40 | 1000.9 |
| 20260505140525 | 66 | 225 | 0.0 | 2.0 | 0.00 | 0.00 | 0.00 | 47 | 1001.6 |
| 20260505124938 | 56 | 180 | 0.0 | 0.0 | 0.00 | 0.00 | 0.00 | 63 | 1001.9 |
| 20260505124435 | 56 | 196 | 0.0 | 0.0 | 0.00 | 0.00 | 0.00 | 64 | 1001.9 |
| 20260505123931 | 56 | 214 | 0.0 | 0.0 | 0.00 | 0.00 | 0.00 | 64 | 1002.2 |
| 20260505123428 | 55 | 219 | 0.0 | 0.0 | 0.00 | 0.00 | 0.00 | 65 | 1001.9 |
| 20260505122923 | 53 | 228 | 0.0 | 0.0 | 0.00 | 0.00 | 0.00 | 67 | 1001.9 |
| 20260505122421 | 53 | 175 | 0.0 | 0.0 | 0.00 | 0.00 | 0.00 | 69 | 1001.9 |
| 20260505121917 | 52 | 200 | 0.0 | 0.0 | 0.00 | 0.00 | 0.00 | 70 | 1001.9 |
| 20260505121415 | 52 | 176 | 0.0 | 0.0 | 0.00 | 0.00 | 0.00 | 70 | 1001.9 |
| 20260505120910 | 51 | 183 | 0.0 | 0.0 | 0.00 | 0.00 | 0.00 | 71 | 1002.2 |
| 20260505120407 | 51 | 195 | 0.0 | 0.0 | 0.00 | 0.00 | 0.00 | 71 | 1002.2 |
| 20260505115906 | 50 | 169 | 0.0 | 0.0 | 0.00 | 0.00 | 0.00 | 72 | 1002.2 |
| 20260505115403 | 50 | 166 | 0.0 | 0.0 | 0.00 | 0.00 | 0.00 | 73 | 1002.2 |
| 20260505114901 | 49 | 216 | 0.0 | 0.0 | 0.00 | 0.00 | 0.00 | 75 | 1002.6 |
| 20260505114357 | 48 | 157 | 0.0 | 0.0 | 0.00 | 0.00 | 0.00 | 75 | 1002.6 |
| 20260505113853 | 48 | 167 | 0.0 | 0.0 | 0.00 | 0.00 | 0.00 | 76 | 1002.6 |
| 20260505113350 | 47 | 215 | 0.0 | 0.0 | 0.00 | 0.00 | 0.00 | 76 | 1002.6 |
| 20260505112846 | 46 | 194 | 0.0 | 0.0 | 0.00 | 0.00 | 0.00 | 77 | 1002.6 |
| 20260505112344 | 46 | 186 | 0.0 | 0.0 | 0.00 | 0.00 | 0.00 | 77 | 1002.9 |
| 20260505111839 | 45 | 156 | 0.0 | 0.0 | 0.00 | 0.00 | 0.00 | 77 | 1002.6 |
| 20260505111334 | 45 | 120 | 0.0 | 0.0 | 0.00 | 0.00 | 0.00 | 78 | 1002.9 |
| 20260505110831 | 45 | 178 | 0.0 | 0.0 | 0.00 | 0.00 | 0.00 | 78 | 1002.9 |
| 20260505110328 | 44 | 160 | 0.0 | 0.0 | 0.00 | 0.00 | 0.00 | 80 | 1002.6 |
| 20260505101803 | 41 | 198 | 0.0 | 0.0 | 0.00 | 0.00 | 0.00 | 91 | 1002.6 |
| 20260505101258 | 41 | 184 | 0.0 | 0.0 | 0.00 | 0.00 | 0.00 | 91 | 1002.6 |
| 20260505100755 | 41 | 176 | 0.0 | 0.0 | 0.00 | 0.00 | 0.00 | 91 | 1002.9 |
| 20260505100251 | 41 | 172 | 0.0 | 0.0 | 0.00 | 0.00 | 0.00 | 91 | 1002.6 |
| 20260505095747 | 41 | 196 | 0.0 | 0.0 | 0.00 | 0.00 | 0.00 | 91 | 1002.6 |
| 20260505095245 | 40 | 141 | 0.0 | 0.0 | 0.00 | 0.00 | 0.00 | 91 | 1002.9 |
| 20260505094740 | 40 | 180 | 0.0 | 0.0 | 0.00 | 0.00 | 0.00 | 91 | 1002.6 |
| 20260505094237 | 40 | 169 | 0.0 | 0.0 | 0.00 | 0.00 | 0.00 | 91 | 1002.6 |
| 20260505093733 | 39 | 189 | 0.0 | 0.0 | 0.00 | 0.00 | 0.00 | 91 | 1002.6 |
| 20260505093231 | 39 | 195 | 0.0 | 0.0 | 0.00 | 0.00 | 0.00 | 90 | 1002.9 |
| 20260505092728 | 39 | 192 | 0.0 | 0.0 | 0.00 | 0.00 | 0.00 | 90 | 1002.9 |
| 20260505092227 | 39 | 195 | 0.0 | 0.0 | 0.00 | 0.00 | 0.00 | 90 | 1002.9 |
| 20260505091723 | 39 | 212 | 0.0 | 0.0 | 0.00 | 0.00 | 0.00 | 89 | 1002.9 |
| 20260505091221 | 39 | 230 | 0.0 | 0.0 | 0.00 | 0.00 | 0.00 | 89 | 1002.9 |
| 20260505090718 | 38 | 192 | 0.0 | 0.0 | 0.00 | 0.00 | 0.00 | 88 | 1002.9 |
| 20260505090217 | 39 | 186 | 0.0 | 0.0 | 0.00 | 0.00 | 0.00 | 88 | 1002.9 |
| 20260505085714 | 39 | 187 | 0.0 | 0.0 | 0.00 | 0.00 | 0.00 | 87 | 1002.9 |
| 20260505085212 | 39 | 194 | 0.0 | 0.0 | 0.00 | 0.00 | 0.00 | 87 | 1002.9 |
| 20260505084709 | 39 | 184 | 0.0 | 0.0 | 0.00 | 0.00 | 0.00 | 85 | 1002.6 |
| 20260505084208 | 39 | 191 | 0.0 | 0.0 | 0.00 | 0.00 | 0.00 | 85 | 1002.9 |
| 20260505083704 | 39 | 203 | 0.0 | 0.0 | 0.00 | 0.00 | 0.00 | 84 | 1002.9 |
| 20260505083201 | 39 | 200 | 0.0 | 0.0 | 0.00 | 0.00 | 0.00 | 83 | 1002.9 |
| 20260505082657 | 39 | 199 | 0.0 | 0.0 | 0.00 | 0.00 | 0.00 | 82 | 1003.2 |
| 20260505082154 | 40 | 201 | 0.0 | 0.0 | 0.00 | 0.00 | 0.00 | 81 | 1003.2 |
| 20260505081650 | 40 | 201 | 0.0 | 0.0 | 0.00 | 0.00 | 0.00 | 81 | 1003.2 |
| 20260505081148 | 40 | 195 | 0.0 | 0.0 | 0.00 | 0.00 | 0.00 | 80 | 1003.2 |
| 20260505080645 | 40 | 203 | 0.0 | 0.0 | 0.00 | 0.00 | 0.00 | 79 | 1002.9 |
| 20260505080140 | 41 | 166 | 0.0 | 0.0 | 0.00 | 0.00 | 0.00 | 79 | 1003.2 |
| 20260505075637 | 41 | 204 | 0.0 | 0.0 | 0.00 | 0.00 | 0.00 | 79 | 1003.2 |
| 20260505075133 | 42 | 190 | 0.0 | 0.0 | 0.00 | 0.00 | 0.00 | 78 | 1003.2 |
| 20260505074630 | 42 | 190 | 0.0 | 0.0 | 0.00 | 0.00 | 0.00 | 78 | 1003.2 |
| 20260505074127 | 42 | 198 | 0.0 | 0.0 | 0.00 | 0.00 | 0.00 | 78 | 1003.2 |
| 20260505073625 | 42 | 199 | 0.0 | 0.0 | 0.00 | 0.00 | 0.00 | 77 | 1003.6 |
| 20260505073123 | 42 | 184 | 0.0 | 0.0 | 0.00 | 0.00 | 0.00 | 77 | 1003.6 |
| 20260505072618 | 42 | 197 | 0.0 | 0.0 | 0.00 | 0.00 | 0.00 | 77 | 1003.2 |
| 20260505072115 | 42 | 197 | 0.0 | 0.0 | 0.00 | 0.00 | 0.00 | 77 | 1003.6 |
| 20260505071611 | 42 | 200 | 0.0 | 0.0 | 0.00 | 0.00 | 0.00 | 78 | 1003.2 |